Regional Weather Roundup
Issued by NWS

Home | Current Version | Previous Version | Graphics & Text | Print | Product List | Glossary On
Versions: 1 2 3 4 5 6 7 8 9 10 11 12 13 14 15 16 17 18 19 20 21 22 23 24 25 26 27 28 29 30 31 32 33 34 35 36 37 38 39 40 41 42 43 44 45 46 47 48 49 50
000
ASUS43 KDTX 121210
RWRMI
MICHIGAN HOURLY REGIONAL WEATHER ROUNDUP
NATIONAL WEATHER SERVICE DETROIT/PONTIAC MI
800 AM EDT SAT JUL 12 2014

NOTE: "FAIR" INDICATES FEW OR NO CLOUDS BELOW 12,000 FEET WITH NO
SIGNIFICANT WEATHER AND/OR OBSTRUCTION TO VISIBILITY.

MIZ047>049-052>055-059>063-066>070-074>076-081>083-121300-
SOUTHEAST LOWER MICHIGAN

CITY           SKY/WX    TMP DP  RH WIND       PRES   REMARKS
ADRIAN         SUNNY     66  61  84 SW3       30.14F
6HR MIN TEMP:  61; 6HR MAX TEMP:  68;

ALMA           SUNNY     65  61  87 S6        30.12R
ANN ARBOR      SUNNY     68  61  78 VRB3      30.13S
BAD AXE        SUNNY     67  60  79 SW5       30.12S
6HR MIN TEMP:  61; 6HR MAX TEMP:  67;

CARO           SUNNY     69  65  88 S5        30.11S
DETROIT CITY   SUNNY     73  63  70 S3        30.13F
6HR MIN TEMP:  68; 6HR MAX TEMP:  73;

DETROIT        MOSUNNY   69  62  78 S3        30.14F
6HR MIN TEMP:  66; 6HR MAX TEMP:  69;

FLINT          SUNNY     69  60  73 S5        30.12S
6HR MIN TEMP:  64; 6HR MAX TEMP:  69;

GROSSE ILE     SUNNY     73  66  78 S5        30.12F
HILLSDALE      SUNNY     66  64  91 CALM      30.15R
6HR MIN TEMP:  59; 6HR MAX TEMP:  66;

HOWELL         SUNNY     67  60  77 CALM      30.13R

CITY           SKY/WX    TMP DP  RH WIND       PRES   REMARKS
JACKSON        SUNNY     68  59  73 S5        30.13S
6HR MIN TEMP:  62; 6HR MAX TEMP:  68;

LAMBERTVILLE   SUNNY     70  61  73 CALM      30.13F
LANSING        MOSUNNY   67  59  75 S5        30.13R
6HR MIN TEMP:  62; 6HR MAX TEMP:  68;

LAPEER         FAIR      67  60  78 CALM      30.13S
MASON          SUNNY     65  60  84 S5        30.13R
MONROE         SUNNY     70  61  73 S5        30.11F
MT. CLEMENS    MOSUNNY   69  64  85 CALM      30.12F
6HR MIN TEMP:  60; 6HR MAX TEMP:  69;

PONTIAC        MOSUNNY   68  59  73 CALM      30.13S
6HR MIN TEMP:  62; 6HR MAX TEMP:  68;

PORT HOPE        N/A     68  59  73 VRB6      30.09F
6HR MIN TEMP:  65; 6HR MAX TEMP:  68;

PORT HURON     SUNNY     64  64 100 CALM      30.14S
TRI CITIES     SUNNY     68  61  78 S7        30.11S
6HR MIN TEMP:  64; 6HR MAX TEMP:  68;

TROY           SUNNY     69  62  81 SW3       30.14S
SAGINAW HB     SUNNY     68  63  83 S7        30.10S
$$
MIZ043>046-050>051-056>058-064>065-071>073-077>080-121300-
SOUTHWEST LOWER MICHIGAN

CITY           SKY/WX    TMP DP  RH WIND       PRES   REMARKS
BATTLE CREEK   SUNNY     69  60  73 S8        30.13R
6HR MIN TEMP:  64; 6HR MAX TEMP:  70;

BENTON HARBOR  SUNNY     69  61  75 SE7       30.08S
6HR MIN TEMP:  65; 6HR MAX TEMP:  69;

BIG RAPIDS     MOSUNNY   63  62  98 E7        30.10S
6HR MIN TEMP:  57; 6HR MAX TEMP:  64;

COLDWATER      SUNNY     70  63  79 CALM      30.13R
6HR MIN TEMP:  64; 6HR MAX TEMP:  70;

FREMONT        FAIR      64  60  86 SE3       30.08F
HOLLAND        MOSUNNY   67  61  81 SE6       30.09S
6HR MIN TEMP:  62; 6HR MAX TEMP:  67;

GRAND RAPIDS   PTSUNNY   68  60  75 S8        30.11R
6HR MIN TEMP:  62; 6HR MAX TEMP:  69;

IONIA          FAIR      65  60  81 CALM      30.11R
KALAMAZOO      SUNNY     69  60  73 S6        30.12S
6HR MIN TEMP:  63; 6HR MAX TEMP:  70;

LUDINGTON      MOSUNNY   69  61  74 NE3       30.07S
6HR MIN TEMP:  59; 6HR MAX TEMP:  69;

MARSHALL       SUNNY     67  60  79 S3        30.12R
MOUNT PLEASANT PTSUNNY   68  63  84 S5        30.10R
6HR MIN TEMP:  59; 6HR MAX TEMP:  68;

MUSKEGON       PTSUNNY   69  60  73 SE6       30.08S
6HR MIN TEMP:  62; 6HR MAX TEMP:  69;

SOUTH HAVEN    SUNNY     68  64  84 SE5       30.08F
$$
MIZ016>042-121300-
NORTHERN LOWER MICHIGAN

CITY           SKY/WX    TMP DP  RH WIND       PRES   REMARKS
ALPENA         PTSUNNY   66  57  72 SW5       30.07R
6HR MIN TEMP:  55; 6HR MAX TEMP:  66;

BEAVER ISLAND  LGT RAIN  64  58  83 SW15G22   30.03R
6HR MIN TEMP:  63; 6HR MAX TEMP:  68;

BELLAIRE       CLOUDY    68  55  64 S3        30.05R
6HR MIN TEMP:  64; 6HR MAX TEMP:  69;

CADILLAC       PTSUNNY   65  58  77 SW9       30.10R
CHARLEVOIX     CLOUDY    68  56  64 S8        30.07R
6HR MIN TEMP:  67; 6HR MAX TEMP:  70;

FRANKFORT      CLOUDY    71  57  61 SW6       30.05F
GAYLORD        CLOUDY    64  54  69 SW7       30.08R
6HR MIN TEMP:  60; 6HR MAX TEMP:  64;

GRAYLING       CLOUDY    65  57  74 CALM      30.10R
6HR MIN TEMP:  54; 6HR MAX TEMP:  65;

HARBOR SPRINGS CLOUDY    66  58  73 CALM      30.03R
HOUGHTON LAKE  MOSUNNY   68  57  68 S6        30.11R
6HR MIN TEMP:  62; 6HR MAX TEMP:  68;

MANISTEE       MOSUNNY   64  55  72 CALM      30.07F
OSCODA         SUNNY     66  61  83 SW8       30.08R
PELLSTON       CLOUDY    67  57  70 SE5       30.04R
6HR MIN TEMP:  55; 6HR MAX TEMP:  67;

ROGERS CITY    PTSUNNY   65  59  79 S8        30.06S
TRAVERSE CITY  CLOUDY    69  56  62 S5        30.05R
6HR MIN TEMP:  68; 6HR MAX TEMP:  70;

$$
MIZ007>008-015-121300-
EASTERN UPPER MICHIGAN

CITY           SKY/WX    TMP DP  RH WIND       PRES   REMARKS
KINROSS        CLOUDY    66  57  72 S7        30.01F
6HR MIN TEMP:  61; 6HR MAX TEMP:  66;

MACKINAC ISLAN CLOUDY    65  56  72 S8        30.02S
6HR MIN TEMP:  64; 6HR MAX TEMP:  67;

NEWBERRY       PTSUNNY   62  56  79 SW12      30.00R
S. S. MARIE    CLOUDY    62  57  83 E3        30.00F
6HR MIN TEMP:  59; 6HR MAX TEMP:  62;

MUNISING         N/A     68  57  68 S12       29.97S
6HR MIN TEMP:  64; 6HR MAX TEMP:  69;

$$
MIZ004>006-011>014-085-121300-
CENTRAL UPPER MICHIGAN

CITY           SKY/WX    TMP DP  RH WIND       PRES   REMARKS
MANISTIQUE     PTSUNNY   58  55  91 SW7       30.01R
ESCANABA       MOSUNNY   64  57  77 SW5       30.00S
6HR MIN TEMP:  63; 6HR MAX TEMP:  66;

MENOMINEE      CLOUDY    66  57  72 W5        30.01F
6HR MIN TEMP:  66; 6HR MAX TEMP:  70;

SAWYER-GWINN   PTSUNNY   63  59  88 S5        30.01R
$$
MIZ001>003-009>011-084-121300-
WESTERN UPPER MICHIGAN

CITY           SKY/WX    TMP DP  RH WIND       PRES   REMARKS
IRON MOUNTAIN  MOSUNNY   61  59  93 CALM      30.01R
6HR MIN TEMP:  58; 6HR MAX TEMP:  68;

HOUGHTON       PTSUNNY   69  64  84 W17       29.96R
6HR MIN TEMP:  66; 6HR MAX TEMP:  70;

COPPER HARBOR    N/A     63  59  87 N16       29.93R
6HR MIN TEMP:  60; 6HR MAX TEMP:  72;

IRONWOOD       PTSUNNY   66  63  88 W5        29.99R
6HR MIN TEMP:  64; 6HR MAX TEMP:  68;

$$

ABBREVIATIONS USED IN REMARKS
   TC - TEMPERATURE IN CELSIUS
  WCI - WIND CHILL INDEX
   HX - HEAT INDEX
  VSB - VISIBILITY




USA.gov is the U.S. government's official web portal to all federal, state and local government web resources and services.